Regional Weather Roundup
Issued by NWS

Home | Current Version | Previous Version | Text Only | Print | Product List | Glossary On
Versions: 1 2 3 4 5 6 7 8 9 10 11 12 13 14 15 16 17 18 19 20 21 22 23 24 25 26 27 28 29 30 31 32 33 34 35 36 37 38 39 40 41 42 43 44 45 46 47 48 49 50
000
ASUS43 KTOP 271108
RWRKS

WEATHER ROUNDUP FOR KANSAS
NATIONAL WEATHER SERVICE GOODLAND KS
600 AM CDT THU APR 27 2017

NOTE:  "FAIR" INDICATES FEW OR NO CLOUDS BELOW 12,000 FEET WITH NO
SIGNIFICANT WEATHER AND/OR OBSTRUCTIONS TO VISIBILITY.

KSZ001>006-013>018-027>032-041>047-271200-
NORTHWEST KANSAS

CITY           SKY/WX    TMP DP  RH WIND       PRES   REMARKS
GOODLAND       PTCLDY    37  30  75 S8        29.61F
HAYS           CLEAR     30  28  92 E5        29.70S
HILL CITY      CLEAR     28  26  92 CALM      29.70S
RUSSELL        CLEAR     30  28  92 SE5       29.70S
$$

KSZ061>065-074>080-084>089-271200-
SOUTHWEST KANSAS

CITY           SKY/WX    TMP DP  RH WIND       PRES   REMARKS
DODGE CITY     MOCLDY    38  33  82 S7        29.66F
ELKHART          N/A     39  32  76 S7          N/A
GARDEN CITY    PTCLDY    38  31  76 S6        29.65F
GREAT BEND     CLEAR     32  30  92 NE3       29.70F
LIBERAL        PTCLDY    38  35  89 SE6       29.66F
PRATT          CLEAR     32  30  92 CALM      29.70R
$$

KSZ066>073-081>083-090>101-271200-
SOUTHEAST KANSAS

CITY           SKY/WX    TMP DP  RH WIND       PRES   REMARKS
CHANUTE        CLEAR     38  35  89 W5        29.73R
COFFEYVILLE    CLEAR     38  37  97 CALM      29.74R
HUTCHINSON     CLEAR     32  31  96 CALM      29.72S
MEDICINE LODGE   N/A     32  31  96 CALM      29.70R
NEWTON         CLEAR     35  33  92 N5        29.73R
PARSONS        CLEAR     36  35  96 CALM      29.74R
WICHITA INTL   CLEAR     38  35  89 NE6       29.71F
WICHITA JABRA  CLEAR     37  35  92 N5        29.72S
WINFIELD       CLEAR     36  34  92 CALM      29.74R
$$

KSZ007>012-019>026-033>040-048>060-102>105-271200-
NORTHEAST KANSAS

CITY           SKY/WX    TMP DP  RH WIND       PRES   REMARKS
CONCORDIA      CLEAR     29  28  96 NW3       29.70S
EMPORIA        CLEAR     34  33  96 CALM      29.72R
LAWRENCE       CLEAR     38  32  79 CALM      29.70S
MANHATTAN      PTCLDY    31  29  92 CALM      29.72R
OLATHE IND     MOCLDY    42  34  73 W5        29.70R
OLATHE EXE     CLOUDY    41  35  79 W3        29.70R
SALINA         CLEAR     32  28  85 SW5       29.73R
TOPEKA BILLARD CLEAR     38  33  82 CALM      29.70F
TOPEKA FORBES  CLEAR     37  32  82 W6        29.70S
$$



USA.gov is the U.S. government's official web portal to all federal, state and local government web resources and services.